Regional Weather Roundup
Issued by NWS

Home | Current Version | Previous Version | Graphics & Text | Print | Product List | Glossary On
Versions: 1 2 3 4 5 6 7 8 9 10 11 12 13 14 15 16 17 18 19 20 21 22 23 24 25 26 27 28 29 30 31 32 33 34 35 36 37 38 39 40 41 42 43 44 45 46 47 48 49 50
000
ASUS43 KFSD 031610
RWRSD

WEATHER ROUNDUP FOR SOUTH DAKOTA
NATIONAL WEATHER SERVICE SIOUX FALLS SD
1100 AM CDT WED JUN 03 2015

NOTE: "FAIR" INDICATES FEW OR NO CLOUDS BELOW 12,000 FEET WITH NO
SIGNIFICANT WEATHER AND/OR OBSTRUCTIONS TO VISIBILITY.


SDZ001>005-009-010-012>017-031700-
NORTHWEST AND NORTH CENTRAL SOUTH DAKOTA

CITY           SKY/WX    TMP DP  RH WIND       PRES   REMARKS
BUFFALO          N/A     57  48  72 N10       29.97S
FAITH            N/A     54  47  77 N13G18    30.01R
MOBRIDGE       CLOUDY    58  51  78 N15       29.93R
$$

SDZ012>016-024>037-041>051-057-063-072>074-031700-
SOUTHWEST AND SOUTH CENTRAL SOUTH DAKOTA

CITY           SKY/WX    TMP DP  RH WIND       PRES   REMARKS
RAPID CTY ARPT CLOUDY    56  52  86 N14       30.04R
PIERRE         CLOUDY    62  56  80 NW18      29.94R
CUSTER         PTSUNNY   66  45  46 VRB5      30.07F
ELLSWORTH AFB  CLOUDY    56  52  88 NE12      30.04R
PHILIP         CLOUDY    61  54  77 NW13      29.99F
PINE RIDGE     MOSUNNY   64  53  67 NE10      30.02S
SPEARFISH      CLOUDY    57  52  82 CALM      30.06S
WINNER         FAIR      68  57  68 NW20G26   29.93R
$$

SDZ004>011-016>023-039-040-031700-
NORTHEAST SOUTH DAKOTA

CITY           SKY/WX    TMP DP  RH WIND       PRES   REMARKS
ABERDEEN       CLOUDY    71  61  70 N13G20    29.84S
WATERTOWN      CLOUDY    62  60  93 N5        29.84R
BROOKINGS      CLOUDY    66  59  77 N18       29.80R
SISSETON         N/A     65  62  90 N21G26    29.81R
$$

SDZ017-020-022-023-036>040-048>070-031700-
SOUTHEAST SOUTH DAKOTA

CITY           SKY/WX    TMP DP  RH WIND       PRES   REMARKS
SIOUX FALLS    CLOUDY    68  64  87 W5        29.83R
HURON          MOSUNNY   69  60  73 NW18G26   29.83R
CHAMBERLAIN    MOSUNNY   66  58  74 NW16      29.90R
MITCHELL       SUNNY     72  61  68 NW12      29.86R
YANKTON        SUNNY     72  63  73 NW3       29.83S
$$

ABBREVIATIONS USED IN REMARKS
   TC - TEMPERATURE IN CELSIUS
  WCI - WIND CHILL INDEX
   HX - HEAT INDEX
  VSB - VISIBILITY




USA.gov is the U.S. government's official web portal to all federal, state and local government web resources and services.